CW6531 Weather Reports


time (UTC)temp
C
wind
direction
speed
KPH
gust
KPH
rain 1hr
cm
rain 24hr
cm
rain mn
cm
humidity
%
barometer
mb
20260505063104 10 175 1.6 3.2 0.05 0.10 0.05 82 1012.7
20260505062103 10 175 0.0 1.6 0.00 0.05 0.00 81 1012.7
20260505061104 10 176 0.0 3.2 0.00 0.05 0.00 81 1012.7
20260505060103 10 173 0.0 3.2 0.00 0.05 0.00 80 1012.6
20260505055104 10 158 1.6 3.2 0.00 0.05 0.05 81 1012.4
20260505054103 9 228 0.0 0.0 0.00 0.05 0.05 82 1012.3
20260505053105 9 228 0.0 0.0 0.00 0.05 0.05 81 1012.3
20260505052103 9 228 0.0 0.0 0.00 0.05 0.05 82 1012.4
20260505051103 9 228 0.0 3.2 0.00 0.05 0.05 82 1012.4
20260505050104 9 177 1.6 4.8 0.00 0.05 0.05 81 1012.4
20260505041104 10 190 0.0 3.2 0.00 0.05 0.05 79 1012.5
20260505040103 10 189 1.6 4.8 0.00 0.05 0.05 78 1012.3
20260505035103 10 189 3.2 6.4 0.03 0.05 0.05 78 1012.2
20260505034125 10 180 0.0 3.2 0.03 0.05 0.05 77 1012.3
20260505033103 10 228 0.0 6.4 0.03 0.05 0.05 76 1012.3
20260505032103 10 240 3.2 6.4 0.00 0.03 0.03 75 1012.2
20260505031103 10 229 1.6 11.3 0.00 0.03 0.03 73 1012.2
20260505030125 11 269 4.8 11.3 0.00 0.03 0.03 72 1012.0
20260505025104 11 253 4.8 9.7 0.03 0.03 0.03 71 1011.4
20260505024104 11 243 3.2 6.4 0.00 0.00 0.00 66 1011.3
20260505023103 11 13 3.2 3.2 0.00 0.00 0.00 65 1011.1
20260505022104 11 344 0.0 6.4 0.00 0.00 0.00 64 1011.0
20260505021103 11 353 3.2 11.3 0.00 0.00 0.00 65 1011.0
20260505020103 11 340 6.4 17.7 0.00 0.00 0.00 65 1011.3
20260505015103 11 340 8.0 17.7 0.00 0.00 0.00 65 1011.1
20260505014103 11 333 8.0 14.5 0.00 0.00 0.00 66 1011.0
20260505013105 12 331 8.0 19.3 0.00 0.00 0.00 65 1011.0
20260505012103 12 337 9.7 16.1 0.00 0.00 0.00 64 1011.0
20260505011103 12 306 8.0 19.3 0.00 0.00 0.00 63 1011.1
20260505010104 14 291 8.0 16.1 0.00 0.00 0.00 58 1011.0
20260505005103 14 321 4.8 8.0 0.00 0.00 0.00 52 1010.9
20260505004124 15 335 3.2 12.9 0.00 0.00 0.00 50 1010.6
20260505003103 15 333 4.8 12.9 0.00 0.00 0.00 50 1010.6
20260505002124 15 357 4.8 11.3 0.00 0.00 0.00 49 1010.7
20260505001102 15 5 3.2 8.0 0.00 0.00 0.00 52 1010.6
20260504235102 14 32 3.2 8.0 0.00 0.00 0.00 55 1010.4
20260504234124 14 19 4.8 14.5 0.00 0.00 0.00 54 1010.5
20260504233103 14 352 6.4 22.5 0.00 0.00 0.00 52 1010.6
20260504232104 15 311 9.7 27.4 0.00 0.00 0.00 50 1010.6
20260504231103 17 279 17.7 27.4 0.00 0.00 0.00 37 1010.2
20260504225103 17 299 6.4 14.5 0.00 0.00 0.00 32 1009.7
20260504224103 17 343 8.0 12.9 0.00 0.00 0.00 31 1009.5
20260504223103 17 353 4.8 12.9 0.00 0.00 0.00 32 1009.5
20260504222124 17 22 3.2 9.7 0.00 0.00 0.00 34 1009.5
20260504221102 17 3 4.8 11.3 0.00 0.00 0.00 35 1009.1
20260504215103 16 25 3.2 17.7 0.00 0.00 0.00 39 1009.4
20260504214103 17 275 12.9 29.0 0.00 0.00 0.00 40 1009.9
20260504213124 17 282 16.1 29.0 0.00 0.00 0.00 32 1010.1
20260504212103 18 311 12.9 35.4 0.00 0.00 0.00 28 1010.2
20260504211124 18 307 16.1 30.6 0.00 0.00 0.00 27 1010.1
20260504205105 18 12 11.3 25.7 0.00 0.00 0.00 26 1009.7
20260504204105 19 353 16.1 32.2 0.00 0.00 0.00 25 1009.4
20260504203105 20 0 19.3 35.4 0.00 0.00 0.00 23 1009.1
20260504202105 20 8 14.5 33.8 0.00 0.00 0.00 22 1009.0
20260504201105 21 351 17.7 32.2 0.00 0.00 0.00 19 1009.0
20260504200105 22 329 12.9 32.2 0.00 0.00 0.00 16 1009.1
20260504195105 23 316 12.9 25.7 0.00 0.00 0.00 17 1008.9
20260504194104 24 308 14.5 32.2 0.00 0.00 0.00 17 1008.9
20260504193105 24 296 9.7 29.0 0.00 0.00 0.00 17 1008.8
20260504192125 24 280 11.3 25.7 0.00 0.00 0.00 16 1008.7
20260504191105 24 336 12.9 20.9 0.00 0.00 0.00 16 1008.7
20260504190105 24 267 12.9 32.2 0.00 0.00 0.00 15 1008.8
20260504185104 24 244 9.7 19.3 0.00 0.00 0.00 16 1008.8
20260504184105 23 276 17.7 29.0 0.00 0.00 0.00 16 1008.9
20260504183106 23 267 17.7 30.6 0.00 0.00 0.00 17 1009.0
20260504182105 23 247 16.1 30.6 0.00 0.00 0.00 17 1009.2
20260504181105 23 250 11.3 25.7 0.00 0.00 0.00 19 1009.2
20260504180105 22 242 14.5 30.6 0.00 0.00 0.00 19 1009.2
20260504175105 22 254 9.7 32.2 0.00 0.00 0.00 20 1009.4
20260504174105 21 263 14.5 29.0 0.00 0.00 0.00 22 1009.6
20260504173127 21 253 12.9 29.0 0.00 0.00 0.00 21 1009.7
20260504172105 21 269 14.5 25.7 0.00 0.00 0.00 22 1009.7
20260504171105 20 259 14.5 32.2 0.00 0.00 0.00 22 1009.8
20260504170104 20 260 12.9 24.1 0.00 0.00 0.00 22 1009.8
20260504160105 18 245 6.4 16.1 0.00 0.00 0.00 26 1010.0
20260504151105 14 236 3.2 6.4 0.00 0.00 0.00 37 1010.2
20260504150104 13 226 1.6 6.4 0.00 0.00 0.00 38 1010.3
20260504141105 10 164 1.6 3.2 0.00 0.00 0.00 45 1010.5
20260504140125 10 164 0.0 3.2 0.00 0.00 0.00 46 1010.5
20260504130104 6 211 1.6 3.2 0.00 0.00 0.00 52 1010.4
20260504120126 6 225 0.0 1.6 0.00 0.00 0.00 48 1010.1
20260504110104 5 197 0.0 1.6 0.00 0.00 0.00 50 1010.4
20260504100103 7 197 0.0 1.6 0.00 0.00 0.00 52 1010.6
20260504090104 8 270 1.6 6.4 0.00 0.00 0.00 44 1010.9
20260504081104 9 344 1.6 6.4 0.00 0.00 0.00 43 1011.2
20260504080104 10 344 3.2 8.0 0.00 0.00 0.00 42 1011.3
20260504070104 11 352 4.8 9.7 0.00 0.00 0.00 40 1011.7